Retour au catalogue

STARLINK-5592

ActifCommunicationsVLEO
NORAD 55741·PAYLOAD·🇺🇸 United States

Lancé Mar 3, 2023 depuis Vandenberg Space Force Base

Loading…

Prochains Passages (prochaines 24 heures)

TLE

FraisSource: CelesTrak SupGP

Époque: Sep 15, 2026, 01:45 UTC

1 55741C 23028A   26258.07340278  .00631480  00000+0  52190-1 0  2588
2 55741  69.9998 127.0711 0003151 270.9813 142.7919 14.98549786    18

Suivez STARLINK-5592 en temps réel avec AllMySat

Download on the App Store